Moline, IL

11:19 AM CDT on August 23, 2019 (GMT -0500)
Quad-City International

Weather History for KMLI - May, 2019

Change the Weather History Date:

Saturday, May 18, 2019

  Actual Average Record
Temperature  
Mean Temperature 61 °F 62 °F  
Max Temperature 72 °F 74 °F 92 °F (1998)
Min Temperature 50 °F 51 °F 33 °F (2002)
Degree Days  
Heating Degree Days 4 5  
Month to date heating degree days 145 119  
Since 1 July heating degree days 6346 6142  
Cooling Degree Days 0 2  
Month to date cooling degree days 8 25  
Year to date cooling degree days 15 39  
Growing Degree Days 11 (Base 50)    
Moisture  
Dew Point 59 °F    
Average Humidity 81    
Maximum Humidity 90    
Minimum Humidity 71    
Precipitation  
Precipitation 0.63 in 0.15 in 2.79 in (1876)
Month to date precipitation 3.63 2.43  
Year to date precipitation 18.95 11.97  
Snow  
Snow 0.00 in 0.00 in - ()
Month to date snowfall 0.0 0.0  
Since 1 July snowfall 60.8 31.6  
Snow Depth 0.00 in    
Sea Level Pressure  
Sea Level Pressure 29.72 in    
Wind  
Wind Speed 9 mph (SE)    
Max Wind Speed 18 mph    
Max Gust Speed 30 mph    
Visibility 8 miles    
Events Rain , Thunderstorm    
T = Trace of Precipitation, MM = Missing Value Source: NWS Daily Summary

Daily Weather History Graph

Daily Weather History Graph

Search for Another Location

Airport or City:

Astronomy

May. 18, 2019 Rise Set
Actual Time 5:40 AM CDT 8:17 PM CDT
Civil Twilight 5:08 AM CDT 8:49 PM CDT
Nautical Twilight 4:28 AM CDT 9:28 PM CDT
Astronomical Twilight 3:43 AM CDT 10:14 PM CDT
Moon 8:11 PM CDT (5/18) 5:48 AM CDT (5/18)
Length of Visible Light 15h 40m
Length of Day
14h 36m
Full, 100% of the Moon is Illuminated
May 18
Full
May 18
Full
May 26
Last Quarter
Jun 3
New
Jun 10
First Quarter

Hourly Weather History & Observations

Time (CDT) Temp. Dew Point Humidity Pressure Visibility Wind Dir Wind Speed Gust Speed Precip Events Conditions
12:52 AM 52.0 °F 44.1 °F 74% 29.83 in 10.0 mi East 17.3 mph - N/A   Scattered Clouds
1:52 AM 51.1 °F 43.0 °F 74% 29.81 in 10.0 mi East 17.3 mph - N/A   Partly Cloudy
2:52 AM 50.0 °F 43.0 °F 77% 29.81 in 10.0 mi East 10.4 mph - N/A   Partly Cloudy
3:52 AM 50.0 °F 43.0 °F 77% 29.80 in 10.0 mi East 9.2 mph - N/A   Scattered Clouds
4:52 AM 50.0 °F 44.1 °F 80% 29.78 in 10.0 mi East 8.1 mph - N/A   Mostly Cloudy
5:52 AM 50.0 °F 45.0 °F 83% 29.79 in 10.0 mi East 9.2 mph - N/A   Clear
6:52 AM 52.0 °F 46.0 °F 80% 29.78 in 10.0 mi East 6.9 mph - N/A   Clear
7:52 AM 57.9 °F 52.0 °F 81% 29.74 in 10.0 mi East 9.2 mph - N/A   Clear
8:52 AM 68.0 °F 59.0 °F 73% 29.73 in 10.0 mi SE 6.9 mph - N/A   Partly Cloudy
9:37 AM 69.1 °F 61.0 °F 75% 29.75 in 10.0 mi Calm Calm - N/A Thunderstorm Thunderstorm
9:49 AM 66.2 °F 60.8 °F 83% 29.78 in 1.8 mi West 12.7 mph 23.0 mph 0.06 in Rain , Thunderstorm Heavy Thunderstorms and Rain
9:52 AM 64.9 °F 61.0 °F 87% 29.77 in 1.2 mi WSW 6.9 mph 23.0 mph 0.13 in Rain , Thunderstorm Heavy Thunderstorms and Rain
10:06 AM 64.0 °F 62.1 °F 93% 29.76 in 1.5 mi West 4.6 mph - 0.18 in Rain , Thunderstorm Heavy Thunderstorms and Rain
10:15 AM 64.9 °F 63.0 °F 93% 29.76 in 1.0 mi SSW 5.8 mph - 0.33 in Rain , Thunderstorm Heavy Rain
10:22 AM 66.0 °F 63.0 °F 90% 29.75 in 2.5 mi South 3.5 mph - 0.34 in Rain , Thunderstorm Light Thunderstorms and Rain
10:29 AM 66.0 °F 64.0 °F 93% 29.75 in 4.0 mi Calm Calm - 0.35 in Rain , Thunderstorm Light Thunderstorms and Rain
10:37 AM 66.0 °F 63.0 °F 90% 29.75 in 6.0 mi Calm Calm - 0.36 in Rain , Thunderstorm Light Rain
10:49 AM 66.2 °F 64.4 °F 94% 29.75 in 8.0 mi ESE 4.6 mph - 0.36 in   Mostly Cloudy
10:52 AM 66.9 °F 64.0 °F 90% 29.75 in 8.0 mi SE 6.9 mph - 0.36 in   Mostly Cloudy
11:52 AM 68.0 °F 64.9 °F 90% 29.68 in 5.0 mi ESE 16.1 mph - 0.07 in Rain Light Rain
12:52 PM 69.1 °F 64.9 °F 87% 29.69 in 10.0 mi Variable 3.5 mph - 0.02 in   Scattered Clouds
1:41 PM 71.1 °F 64.9 °F 81% 29.68 in 10.0 mi South 11.5 mph - N/A   Mostly Cloudy
1:52 PM 71.1 °F 64.9 °F 81% 29.68 in 10.0 mi South 9.2 mph - N/A   Overcast
2:52 PM 71.1 °F 66.0 °F 84% 29.70 in 10.0 mi South 9.2 mph - N/A   Overcast
3:52 PM 72.0 °F 66.0 °F 81% 29.67 in 10.0 mi South 9.2 mph 25.3 mph N/A   Scattered Clouds
4:52 PM 72.0 °F 64.9 °F 78% 29.68 in 10.0 mi South 3.5 mph - N/A   Clear
5:52 PM 70.0 °F 66.0 °F 87% 29.66 in 10.0 mi SSE 5.8 mph - 0.03 in   Mostly Cloudy
6:52 PM 70.0 °F 64.9 °F 84% 29.64 in 10.0 mi ESE 3.5 mph - N/A   Overcast
7:52 PM 70.0 °F 64.9 °F 84% 29.61 in 10.0 mi SE 11.5 mph - 0.01 in   Overcast
8:52 PM 69.1 °F 64.0 °F 84% 29.60 in 10.0 mi ESE 8.1 mph - N/A   Clear
9:52 PM 72.0 °F 63.0 °F 73% 29.60 in 10.0 mi SE 12.7 mph - N/A   Mostly Cloudy
10:52 PM 70.0 °F 63.0 °F 78% 29.57 in 10.0 mi SE 9.2 mph - 0.01 in   Scattered Clouds
11:52 PM 69.1 °F 62.1 °F 78% 29.56 in 10.0 mi SSE 9.2 mph - N/A   Partly Cloudy